Wind_Speed
45 44 45 46 47 46 46 45 43 43 44 44 45 45 45 45 44 43 40 37 34 32 31 32 34 35 36 36 37 38 39 38 37 37 38 39 39 39 39 40 42 43 45 46 46 45 44 42 42 42 42 42 42 43 44 44 45 46 47 48 48 48 48
45 45 46 45 44 44 43 42 41 40 41 42 42 42 42 41 40 38 36 34 32 32 32 33 34 36 36 37 38 39 39 39 38 38 39 39 39 39 39 41 42 44 46 46 44 43 42 41 41 41 42 42 43 43 44 45 46 47 47 47 48 48 48
46 45 46 45 42 41 40 40 39 38 39 39 39 39 38 37 36 35 33 32 32 32 32 34 35 36 37 38 39 39 40 39 39 39 39 39 39 39 39 41 43 45 46 45 43 41 41 41 40 40 41 42 43 44 44 45 46 47 47 47 47 47 48
46 45 46 44 43 41 40 39 38 37 37 37 37 37 36 35 34 33 32 31 32 33 34 35 36 37 37 39 40 40 41 41 40 40 40 39 39 39 40 42 44 46 46 44 42 40 40 40 40 41 42 43 44 44 45 46 46 46 46 46 47 48 49
45 46 46 44 44 43 41 40 38 37 37 36 36 36 35 34 33 32 32 32 33 35 36 36 37 37 38 39 40 41 42 41 41 40 40 39 38 39 41 43 45 47 46 43 41 40 39 39 40 41 42 43 44 45 46 46 46 45 45 46 47 48 49
45 46 47 45 45 44 42 41 38 37 37 37 37 36 35 35 34 33 33 34 35 36 36 37 38 38 39 40 41 42 42 42 41 40 40 39 38 39 42 44 46 46 45 42 40 39 39 39 40 42 43 44 45 46 46 46 45 45 45 46 47 48 49
46 47 47 45 45 45 43 41 38 38 38 38 38 37 37 36 35 35 35 36 36 36 37 38 39 39 40 40 42 42 42 42 41 41 40 39 39 40 42 44 46 45 43 41 40 39 39 40 41 42 43 44 45 46 45 45 45 45 45 47 47 48 49
47 48 47 45 45 45 44 42 39 39 39 39 39 38 38 37 36 36 36 37 37 38 39 39 39 40 40 41 42 42 43 42 41 41 39 39 40 41 43 45 46 44 42 40 39 39 39 40 41 42 43 44 45 45 44 44 45 45 46 46 47 48 48
49 50 48 46 46 45 44 43 41 40 40 40 39 38 38 37 37 37 38 38 39 39 39 39 39 40 40 41 41 42 42 42 41 39 38 40 41 42 44 45 45 43 41 40 39 39 39 40 41 42 43 44 44 44 44 44 44 45 45 46 47 47 47
51 51 48 46 46 46 46 45 43 42 41 40 40 39 39 39 39 39 40 40 40 39 39 40 40 40 39 40 41 42 42 41 40 39 41 42 41 42 44 45 43 41 41 40 40 39 39 40 41 42 43 43 43 43 43 43 44 44 45 46 47 48 47
51 51 49 48 48 47 47 46 45 44 43 42 41 41 40 40 40 40 41 41 40 40 40 40 40 39 39 39 40 40 41 41 41 42 43 41 40 42 44 43 42 41 40 40 40 39 39 40 41 42 42 42 42 42 42 42 43 44 45 47 48 48 47
52 52 50 50 49 49 48 47 46 46 45 44 43 43 42 42 42 42 42 42 42 41 40 40 41 41 40 40 39 40 42 43 43 44 42 39 41 43 43 42 41 40 40 40 39 39 39 40 41 42 42 42 41 41 41 41 42 44 46 47 47 46 45
53 53 52 51 51 50 49 48 47 46 46 45 45 44 44 43 43 43 43 43 42 42 42 43 44 43 42 41 40 41 44 44 43 41 40 41 44 43 42 42 41 40 40 40 39 39 40 40 41 42 41 41 40 39 40 41 43 44 45 45 45 44 45
55 55 53 53 52 51 50 49 48 47 46 46 45 45 45 45 45 44 44 44 43 44 45 45 44 43 43 42 41 42 43 41 40 40 42 45 45 43 42 42 41 40 40 40 39 39 40 41 41 41 41 40 39 39 40 41 43 43 43 43 43 44 46
56 56 54 53 52 52 52 50 49 47 46 46 46 46 46 47 47 46 46 46 46 47 47 46 45 45 44 43 42 42 42 41 41 44 46 47 45 43 42 41 41 40 40 40 39 39 40 41 41 41 40 39 39 40 40 41 41 41 40 41 42 44 45
57 56 55 54 54 54 54 53 51 49 48 48 48 48 49 49 50 49 50 49 49 49 49 49 48 46 45 44 43 43 44 45 46 48 48 45 44 43 41 41 41 40 40 40 40 40 40 41 41 41 40 39 40 40 39 39 39 38 38 40 41 43 45
59 58 58 57 56 56 56 55 53 52 52 52 52 52 52 53 53 53 53 52 52 51 50 49 47 44 44 45 44 44 47 49 49 47 44 42 43 42 41 41 41 40 40 40 39 40 40 41 42 41 40 40 40 39 39 39 37 36 38 40 42 44 47
61 61 61 60 59 59 58 57 56 54 55 55 55 55 55 55 55 55 55 55 54 53 52 50 46 43 44 45 44 44 45 46 44 42 40 41 43 43 41 42 41 40 40 40 39 40 41 42 42 41 40 41 40 39 39 39 38 37 40 42 44 47 50
60 61 61 60 59 59 58 57 55 54 55 55 55 55 55 55 55 55 55 55 55 54 53 51 47 44 43 42 40 39 40 40 39 40 41 43 45 44 43 42 41 40 40 39 39 40 42 43 42 41 41 41 40 40 40 40 40 41 43 45 48 50 53
56 57 57 56 56 55 55 53 52 52 53 53 53 52 52 52 52 53 53 53 53 53 53 52 49 47 46 45 43 42 41 40 41 43 44 45 46 45 43 41 40 40 40 39 39 41 43 43 42 41 41 41 41 41 41 42 44 45 47 49 51 53 55
51 52 52 51 51 50 49 48 47 48 49 49 48 47 48 48 48 48 49 49 49 49 49 50 50 49 50 52 53 52 50 49 48 47 47 47 46 44 42 40 39 39 39 39 40 42 43 44 42 42 42 42 42 43 43 44 46 47 49 52 53 55 57
47 47 47 47 46 46 45 44 43 44 45 44 44 44 44 44 44 44 44 44 44 44 44 46 47 48 49 51 54 55 56 55 53 50 47 46 45 42 40 38 37 38 38 39 41 42 44 44 43 42 43 44 44 45 46 46 47 48 50 53 55 57 60
44 45 44 43 43 43 42 40 40 41 42 41 41 41 41 41 40 40 41 41 41 41 41 42 43 45 46 48 50 52 53 53 52 50 47 45 43 39 37 36 36 36 38 40 41 43 44 45 44 43 44 46 47 48 49 49 49 50 52 55 58 61 64
44 44 43 42 42 41 40 39 39 40 41 40 39 40 39 39 39 39 39 39 39 39 40 40 41 42 43 44 46 47 47 48 47 46 44 41 38 36 34 34 34 36 39 41 42 43 44 45 45 44 46 48 49 51 52 52 52 53 56 58 61 65 67
44 43 43 42 41 40 39 38 39 40 39 39 39 38 38 39 39 38 38 38 38 38 38 38 39 40 40 41 42 42 42 42 41 40 38 36 34 33 32 32 35 38 40 41 42 44 45 45 45 45 47 50 52 53 53 53 54 55 57 60 63 66 69
44 43 43 42 40 38 38 37 38 39 39 38 38 38 38 38 38 37 36 36 36 37 37 37 37 38 38 38 38 37 37 35 35 34 34 32 31 31 31 33 37 39 41 42 43 44 46 46 45 46 49 51 53 54 55 54 54 56 59 62 65 67 71
43 42 41 39 36 36 36 36 37 38 38 38 37 37 37 37 36 35 34 35 35 36 36 36 36 36 35 35 33 32 31 31 31 31 30 30 29 29 31 35 39 40 41 42 43 45 46 46 46 47 50 52 54 56 55 54 55 57 60 63 66 70 73
40 39 37 34 33 34 35 35 37 38 37 37 36 35 35 35 33 33 33 34 34 35 34 34 33 33 32 30 29 28 28 29 29 28 28 28 29 31 34 37 39 40 41 42 44 46 47 46 47 49 52 54 56 57 56 55 57 59 62 64 68 72 75
37 36 32 30 31 33 34 36 37 36 36 35 34 33 34 33 31 31 32 33 33 33 32 31 30 29 28 27 27 27 27 27 26 26 28 29 30 32 36 38 39 40 42 43 45 47 47 47 48 50 53 56 57 57 57 57 59 61 63 66 70 73 76
35 32 28 28 31 33 35 36 36 35 34 33 32 32 32 31 30 31 31 31 31 30 30 29 28 27 26 26 26 26 25 24 24 26 27 29 31 34 37 38 40 41 42 43 45 47 48 48 49 52 55 57 58 57 57 59 61 63 65 68 71 75 77
32 29 27 29 32 34 35 34 34 34 33 31 30 30 30 30 30 31 30 29 28 28 29 28 27 25 25 26 26 24 23 22 24 26 28 29 32 35 38 39 40 41 42 44 46 48 48 49 51 54 57 58 58 58 58 60 62 65 67 70 73 76 78
29 27 27 30 32 34 33 33 33 32 31 29 29 29 30 30 30 30 29 28 27 27 28 27 26 25 26 26 25 24 23 24 27 29 29 31 34 36 38 39 40 41 43 45 47 48 49 50 53 56 58 59 58 58 60 62 64 66 69 72 75 77 79
26 26 27 29 32 32 31 31 31 30 29 28 28 29 30 30 30 29 29 28 27 28 27 27 26 26 26 26 26 25 25 28 31 31 31 33 35 37 38 39 40 42 44 46 48 49 50 52 55 58 59 59 59 59 60 63 65 68 71 74 76 79 80
25 26 27 29 30 30 30 30 30 29 28 27 27 29 30 29 28 28 28 28 28 29 28 28 27 27 27 27 28 28 29 32 34 33 33 35 37 38 39 39 41 43 45 47 49 50 52 54 57 59 60 59 59 60 62 64 67 70 73 75 78 80 82
26 26 27 28 28 27 27 28 28 28 27 26 27 29 30 29 27 27 28 28 28 28 27 27 27 28 28 28 29 30 32 34 34 34 36 38 38 38 39 41 42 44 46 47 50 52 53 56 58 60 60 60 60 61 63 66 69 71 74 77 79 81 84
29 28 27 25 23 22 23 25 27 28 27 26 27 29 30 30 29 29 29 30 29 27 27 27 28 28 28 29 31 33 34 35 36 37 39 39 39 39 41 42 44 45 46 48 50 53 55 57 60 61 60 60 61 62 65 68 71 73 75 78 80 83 86
32 30 28 23 18 17 20 23 25 26 26 26 27 28 30 31 30 30 31 31 31 31 31 32 33 33 33 34 35 36 37 38 39 40 40 40 40 42 43 44 45 45 46 49 52 54 56 58 60 61 60 60 61 64 67 70 72 74 77 79 82 85 87
Wind_Direction
250 252 253 251 250 251 253 255 257 260 263 265 268 271 274 277 279 280 281 278 275 275 278 280 284 287 289 290 291 293 295 297 297 297 300 302 303 303 305 309 312 315 316 316 315 315 314 314 314 314 313 313 312 312 312 313 314 314 314 314 314 314 315
250 251 253 253 253 252 253 255 258 260 263 266 269 272 274 275 276 276 275 273 273 275 277 280 283 287 288 290 291 293 295 296 297 297 300 301 302 303 305 309 312 315 317 316 315 314 314 314 314 314 313 312 312 313 313 315 315 315 315 315 315 315 316
249 251 252 254 254 254 254 256 258 261 263 266 268 270 271 271 271 271 271 271 273 274 277 280 284 287 288 290 292 294 295 296 296 298 300 301 301 302 304 308 311 315 316 316 315 314 314 314 314 314 312 312 313 314 315 316 316 316 316 316 316 316 316
248 251 252 254 255 255 256 256 258 260 262 264 266 267 268 268 268 268 269 270 272 274 278 281 284 287 289 291 292 294 294 295 297 298 300 301 301 301 304 307 311 314 316 316 315 314 315 315 314 313 313 313 314 316 317 317 317 317 317 317 317 317 317
248 251 252 253 255 256 256 256 257 259 262 263 265 265 266 266 266 267 268 270 273 276 279 282 284 287 289 291 292 293 294 296 297 298 299 300 300 301 304 307 311 314 316 315 315 315 315 314 313 313 314 315 316 317 317 317 317 318 318 317 317 317 317
247 250 251 253 255 256 256 256 256 259 261 263 263 264 265 265 265 266 268 271 274 276 279 282 284 287 290 291 292 293 295 296 297 298 299 299 300 302 305 308 311 314 315 315 315 315 314 314 313 314 315 316 317 317 317 318 318 318 318 317 317 317 317
247 249 251 252 254 255 256 256 257 259 260 261 262 263 264 265 265 267 269 272 274 276 279 282 285 287 290 291 292 293 295 296 297 297 298 299 300 302 305 308 312 314 315 315 314 314 314 313 314 315 316 317 317 317 318 318 318 318 318 317 317 317 318
247 249 250 251 253 254 256 256 257 258 259 260 260 262 263 264 265 267 269 272 275 278 280 283 285 287 289 291 292 293 294 295 296 297 297 299 301 304 306 309 312 314 314 314 313 313 313 313 315 316 317 317 317 318 318 318 318 318 318 318 319 319 320
247 248 249 250 252 254 256 257 257 257 258 258 259 261 262 263 265 267 270 273 276 279 280 282 284 286 289 291 292 293 294 295 296 297 298 301 303 305 308 311 312 313 314 313 312 312 313 314 316 317 317 318 318 319 319 319 319 319 319 319 320 320 321
246 248 249 250 252 254 256 256 256 257 257 258 259 260 262 263 266 268 271 274 277 278 279 280 283 286 289 290 292 293 294 295 297 298 300 302 303 306 310 312 313 313 313 312 312 313 314 315 316 317 318 318 319 319 319 319 319 320 320 320 320 322 322
247 248 249 250 251 253 255 256 257 257 258 258 259 261 262 264 267 270 272 274 275 276 278 280 283 285 287 289 290 291 292 294 295 297 299 300 303 308 310 312 313 313 312 311 311 312 314 315 316 317 318 319 319 319 319 319 319 320 320 320 321 323 324
247 248 249 249 251 252 254 256 257 258 258 259 260 261 263 265 267 269 271 272 274 275 277 279 281 283 285 286 288 288 289 292 294 295 296 299 305 308 309 311 313 312 311 310 311 312 313 315 316 317 318 319 319 319 319 318 319 320 320 321 323 325 326
247 247 248 249 251 252 254 255 256 258 259 260 261 262 263 265 267 269 270 272 274 276 277 279 280 282 284 285 286 287 288 290 291 292 294 300 305 307 309 311 312 311 310 309 310 312 313 315 316 318 318 319 319 319 318 318 319 320 321 323 325 326 327
246 247 248 249 251 252 253 254 255 257 259 260 262 263 264 266 267 269 271 272 274 276 278 279 279 281 283 284 285 286 287 286 287 289 294 300 303 305 307 310 311 310 308 308 309 311 313 315 316 317 318 318 318 318 318 319 320 321 322 324 326 327 328
245 247 248 249 251 252 253 254 255 256 258 260 261 263 265 267 268 269 270 272 274 276 277 278 278 280 282 283 284 284 282 281 284 289 293 298 301 303 306 308 309 308 307 307 309 311 313 315 316 316 316 317 317 318 319 320 321 322 324 326 327 328 329
245 247 248 249 250 252 253 254 255 256 257 259 261 263 265 267 268 270 271 273 274 275 276 278 279 281 283 282 280 279 278 280 284 289 292 295 299 302 304 306 307 306 306 307 309 311 313 314 315 315 315 316 317 318 319 320 321 323 326 327 328 329 330
244 246 247 248 250 251 253 254 255 256 258 259 261 263 265 266 268 270 271 272 273 274 275 276 278 281 284 282 279 277 278 281 284 287 289 293 298 302 303 305 306 305 305 306 309 311 312 313 313 314 315 317 318 318 319 319 320 323 325 326 327 329 332
244 246 247 248 250 252 253 255 256 257 259 260 262 263 265 266 267 268 269 270 271 271 272 274 275 278 281 282 282 280 278 280 282 284 288 293 298 300 302 304 304 304 304 306 309 310 311 312 312 313 315 317 318 317 317 317 317 320 323 324 326 329 332
245 246 248 249 250 252 254 255 256 258 260 261 262 263 265 266 267 268 268 268 269 269 270 271 272 274 277 278 278 278 277 277 279 283 288 293 296 298 300 302 302 303 304 306 308 310 311 312 312 314 317 318 317 316 316 314 313 316 319 321 323 327 330
244 246 248 249 250 252 253 255 256 258 259 261 263 264 265 266 267 267 268 268 268 268 268 268 267 267 268 270 271 274 275 275 277 284 290 293 294 296 298 300 300 302 303 306 308 309 311 311 312 315 318 318 316 316 315 313 312 314 317 319 323 326 328
243 245 247 249 251 252 254 255 256 258 259 261 263 264 265 266 267 268 268 268 269 269 268 268 267 264 263 264 268 272 274 275 278 284 289 291 291 294 296 298 299 301 303 306 308 309 311 312 313 315 317 317 316 315 314 313 312 314 317 320 324 326 328
243 245 248 250 251 252 253 254 256 258 259 261 262 263 264 266 267 267 268 269 269 270 269 269 268 267 265 264 266 269 272 275 278 281 285 288 290 292 294 296 299 301 304 306 308 310 311 311 313 315 316 316 316 315 314 313 313 314 317 321 323 325 326
242 245 248 250 251 252 253 254 255 257 258 259 261 263 264 265 267 268 269 270 271 271 270 270 269 269 269 268 268 269 270 273 275 277 281 285 288 289 293 296 299 303 306 308 310 311 311 311 312 314 315 316 316 315 315 314 314 314 317 320 322 323 324
242 245 247 248 250 252 253 254 254 256 258 260 261 263 265 266 267 268 269 270 270 271 271 270 270 270 270 270 270 270 271 272 274 275 278 283 285 288 293 297 301 305 307 309 311 311 311 311 311 313 315 316 317 316 316 315 315 316 318 320 322 324 325
241 244 246 248 250 252 253 254 255 257 259 261 262 263 265 266 267 268 269 270 270 271 271 271 271 271 271 270 271 271 272 273 274 275 277 280 284 289 293 298 303 307 308 310 311 311 310 310 311 312 314 316 317 317 316 316 316 317 318 320 322 324 325
240 243 246 249 251 253 254 255 257 259 260 261 262 263 264 266 267 269 270 272 272 272 272 272 271 271 270 270 270 270 271 272 273 275 277 281 286 290 294 299 305 307 308 310 311 310 310 310 311 313 314 315 317 317 317 316 315 316 318 320 322 323 324
240 243 246 249 251 252 254 256 257 259 260 260 261 263 265 267 269 271 273 274 274 272 271 270 270 269 269 268 268 269 270 271 272 275 278 284 288 290 295 302 306 307 308 309 309 309 309 310 312 313 313 314 316 318 317 315 315 315 317 319 321 323 325
239 242 245 247 249 252 254 256 257 259 260 261 262 264 265 267 270 273 275 274 272 270 269 269 268 267 267 266 267 267 268 270 273 277 282 286 288 291 297 303 305 307 308 308 308 308 309 310 312 313 313 314 317 318 316 315 315 316 317 319 321 324 326
238 241 243 244 247 252 254 256 258 260 261 262 263 264 266 268 271 273 273 272 271 269 267 266 265 264 264 265 265 266 268 270 275 281 285 287 289 294 299 303 305 306 307 306 306 308 309 311 311 312 312 314 317 317 315 314 315 316 317 319 322 324 326
237 239 241 244 248 252 255 257 260 262 263 263 264 265 267 270 271 270 271 272 271 267 264 263 263 263 264 263 264 265 267 273 280 285 288 289 291 296 300 302 304 305 305 305 306 308 309 310 310 311 313 315 317 317 315 314 315 316 318 320 322 324 326
236 239 241 245 250 254 258 261 263 264 263 263 264 266 268 268 268 268 270 271 269 264 261 261 262 263 262 262 263 265 268 277 287 291 290 290 294 298 300 302 303 304 303 304 306 307 308 308 309 311 314 316 316 316 315 315 316 317 318 320 322 324 326
236 240 244 248 253 258 262 265 266 264 264 263 264 266 267 267 267 267 268 268 266 262 260 260 260 260 260 261 261 263 270 283 293 293 291 292 296 298 299 301 302 302 303 304 305 306 306 308 309 312 315 316 316 316 316 316 316 318 319 321 322 325 326
237 242 245 250 256 261 265 267 266 264 263 263 265 266 267 268 268 267 265 263 261 259 259 258 258 258 261 263 262 264 273 287 293 292 290 293 296 297 298 300 301 301 302 303 304 305 306 308 310 312 315 315 315 316 317 317 317 318 320 321 323 325 326
237 241 245 251 257 263 266 266 265 264 263 264 265 266 266 268 267 264 260 258 258 258 258 258 259 262 263 264 262 265 276 287 290 289 289 292 294 296 298 300 301 301 302 303 305 306 307 308 310 312 314 314 314 316 317 317 317 319 321 322 324 325 325
233 237 242 250 257 262 265 265 264 264 264 264 265 265 265 265 264 261 260 259 259 260 261 263 265 266 265 264 264 270 280 286 286 285 287 291 293 295 298 300 299 300 302 305 307 309 309 309 310 312 313 313 314 315 316 317 318 320 321 323 324 325 326
227 231 237 244 253 260 263 264 264 264 264 263 263 264 264 263 261 259 260 262 263 262 262 263 264 266 268 268 271 277 282 284 284 285 287 290 293 295 298 298 298 300 304 308 310 310 309 310 311 312 313 313 313 315 317 318 319 320 322 323 324 325 327
224 227 229 232 241 256 262 264 265 265 264 262 262 264 265 265 263 261 259 260 262 263 263 263 265 268 270 272 275 278 281 283 284 286 288 290 293 295 296 297 298 302 306 310 311 311 310 311 312 313 313 313 313 315 317 319 320 321 323 324 325 326 327
Height
10749 10752 10753 10753 10755 10757 10759 10761 10763 10765 10765 10765 10766 10766 10766 10766 10766 10766 10766 10765 10766 10766 10767 10767 10766 10765 10764 10763 10762 10761 10759 10758 10756 10754 10752 10749 10747 10744 10742 10740 10738 10735 10732 10728 10725 10721 10718 10715 10712 10709 10706 10704 10702 10700 10697 10694 10691 10688 10685 10681 10677 10674 10670
10745 10747 10748 10749 10751 10753 10755 10757 10759 10760 10761 10761 10762 10762 10762 10762 10762 10762 10762 10762 10763 10763 10763 10763 10763 10762 10760 10759 10758 10757 10756 10755 10753 10751 10749 10746 10744 10741 10739 10736 10734 10731 10728 10725 10722 10718 10715 10712 10709 10707 10703 10701 10699 10696 10693 10690 10687 10684 10680 10676 10673 10669 10666
10740 10742 10743 10745 10747 10749 10751 10753 10755 10756 10757 10757 10758 10758 10758 10758 10758 10758 10759 10759 10759 10760 10760 10760 10759 10758 10757 10756 10755 10754 10752 10751 10749 10747 10745 10743 10740 10738 10736 10733 10731 10728 10725 10721 10718 10715 10712 10709 10706 10703 10701 10697 10695 10693 10690 10686 10683 10679 10676 10672 10669 10665 10662
10735 10737 10739 10740 10742 10745 10747 10749 10751 10752 10753 10753 10754 10754 10754 10754 10755 10755 10755 10755 10756 10756 10756 10756 10755 10754 10753 10752 10751 10750 10749 10747 10746 10744 10742 10739 10737 10735 10732 10730 10727 10724 10721 10718 10715 10712 10709 10706 10702 10700 10697 10694 10691 10688 10685 10682 10679 10676 10672 10669 10665 10662 10658
10731 10732 10734 10736 10738 10740 10742 10744 10747 10748 10749 10749 10750 10750 10750 10751 10751 10751 10752 10752 10752 10752 10752 10752 10751 10750 10750 10749 10748 10746 10745 10743 10742 10740 10738 10736 10733 10731 10728 10726 10723 10720 10717 10715 10712 10709 10706 10702 10699 10696 10693 10690 10687 10684 10681 10678 10675 10672 10668 10665 10661 10658 10655
10726 10728 10730 10732 10733 10735 10737 10740 10742 10744 10745 10745 10746 10746 10747 10747 10748 10748 10748 10748 10748 10748 10748 10748 10747 10746 10746 10745 10744 10742 10741 10740 10738 10736 10734 10732 10730 10727 10725 10722 10719 10717 10714 10711 10708 10705 10702 10699 10696 10693 10690 10687 10683 10680 10677 10674 10671 10668 10664 10661 10658 10654 10651
10722 10723 10725 10728 10729 10730 10732 10735 10738 10740 10740 10741 10742 10742 10743 10744 10744 10744 10744 10744 10744 10744 10744 10744 10743 10742 10742 10741 10739 10738 10737 10735 10734 10732 10730 10728 10726 10724 10721 10718 10716 10713 10710 10707 10705 10702 10699 10696 10693 10690 10687 10684 10680 10677 10674 10671 10667 10664 10661 10657 10654 10651 10648
10717 10718 10721 10723 10724 10725 10728 10731 10734 10735 10736 10737 10737 10738 10739 10740 10740 10740 10740 10740 10740 10740 10740 10739 10739 10738 10737 10736 10735 10734 10732 10731 10730 10728 10726 10724 10722 10720 10717 10715 10712 10709 10706 10704 10701 10699 10696 10693 10690 10687 10684 10680 10677 10674 10671 10667 10664 10660 10657 10654 10651 10648 10645
10713 10714 10717 10719 10719 10721 10724 10726 10729 10730 10731 10732 10733 10734 10734 10735 10736 10736 10736 10736 10736 10736 10736 10735 10734 10734 10733 10732 10731 10729 10728 10727 10725 10724 10722 10720 10718 10716 10713 10711 10708 10706 10702 10700 10697 10695 10693 10690 10687 10684 10681 10677 10674 10670 10667 10663 10660 10657 10654 10650 10647 10644 10641
10708 10709 10713 10714 10715 10717 10719 10721 10724 10725 10727 10727 10728 10729 10730 10731 10732 10732 10732 10732 10732 10732 10731 10731 10730 10730 10729 10728 10727 10725 10724 10722 10721 10720 10718 10717 10715 10713 10710 10707 10704 10701 10698 10696 10694 10692 10690 10687 10684 10681 10678 10675 10671 10667 10664 10660 10657 10654 10651 10647 10644 10641 10638
10703 10705 10708 10709 10710 10712 10713 10716 10718 10720 10722 10723 10723 10725 10726 10727 10728 10728 10728 10727 10728 10728 10727 10727 10726 10726 10726 10725 10724 10722 10720 10719 10717 10716 10715 10713 10711 10709 10706 10703 10700 10697 10695 10693 10691 10688 10686 10683 10680 10678 10675 10672 10668 10665 10661 10657 10654 10651 10647 10644 10641 10637 10634
10699 10701 10703 10704 10706 10707 10709 10711 10713 10715 10717 10718 10719 10720 10721 10722 10723 10724 10723 10723 10723 10723 10723 10723 10722 10722 10721 10721 10720 10718 10717 10715 10713 10712 10711 10709 10707 10705 10702 10699 10696 10694 10691 10689 10687 10685 10682 10680 10677 10674 10672 10669 10666 10662 10658 10655 10651 10648 10644 10641 10638 10634 10630
10693 10695 10697 10699 10701 10703 10704 10706 10709 10710 10712 10713 10714 10716 10716 10717 10718 10719 10718 10719 10719 10719 10719 10719 10718 10717 10717 10716 10716 10715 10713 10711 10710 10708 10707 10705 10703 10701 10699 10696 10693 10690 10688 10686 10684 10681 10679 10676 10674 10671 10669 10666 10663 10659 10656 10652 10648 10645 10641 10638 10635 10631 10627
10687 10689 10692 10694 10696 10698 10699 10701 10704 10706 10707 10708 10709 10710 10711 10712 10713 10714 10714 10714 10715 10714 10714 10714 10714 10713 10712 10712 10712 10711 10709 10707 10706 10704 10703 10701 10700 10697 10695 10692 10689 10687 10685 10683 10680 10678 10675 10673 10670 10668 10665 10662 10659 10656 10653 10649 10645 10642 10639 10635 10631 10628 10624
10681 10684 10687 10689 10690 10692 10694 10696 10699 10701 10703 10704 10704 10705 10706 10707 10708 10708 10709 10709 10710 10709 10709 10709 10709 10709 10708 10708 10708 10707 10705 10703 10702 10700 10699 10698 10696 10694 10691 10689 10686 10684 10682 10679 10677 10674 10672 10669 10667 10665 10662 10659 10655 10652 10649 10646 10642 10639 10636 10632 10628 10624 10620
10676 10678 10681 10683 10685 10687 10689 10691 10694 10696 10698 10698 10699 10700 10701 10701 10702 10703 10704 10704 10705 10704 10704 10705 10704 10704 10704 10703 10703 10702 10701 10699 10698 10697 10695 10694 10692 10690 10687 10685 10683 10680 10678 10676 10673 10671 10669 10666 10664 10661 10658 10655 10651 10648 10645 10642 10639 10636 10632 10629 10625 10621 10617
10670 10672 10675 10677 10679 10681 10683 10686 10689 10691 10692 10693 10693 10695 10696 10696 10697 10698 10698 10699 10699 10699 10699 10700 10700 10700 10699 10698 10698 10698 10696 10694 10694 10692 10691 10690 10688 10686 10683 10681 10679 10677 10675 10672 10670 10667 10665 10663 10660 10657 10654 10651 10647 10644 10641 10638 10635 10632 10629 10625 10621 10617 10612
10664 10666 10668 10671 10674 10676 10678 10680 10683 10685 10686 10687 10688 10689 10690 10691 10692 10692 10692 10693 10693 10693 10694 10694 10695 10695 10694 10693 10693 10693 10691 10690 10689 10688 10686 10685 10684 10682 10680 10677 10675 10673 10671 10669 10667 10664 10662 10659 10656 10653 10650 10647 10644 10641 10637 10634 10632 10629 10625 10621 10617 10613 10608
10659 10660 10663 10666 10669 10671 10673 10675 10678 10680 10680 10681 10682 10683 10684 10685 10685 10686 10686 10686 10687 10687 10688 10689 10690 10690 10690 10689 10689 10688 10687 10686 10684 10683 10682 10681 10680 10678 10676 10674 10671 10670 10668 10666 10663 10661 10658 10655 10653 10649 10646 10643 10640 10637 10634 10630 10628 10625 10621 10617 10613 10609 10604
10653 10655 10658 10661 10664 10666 10668 10670 10673 10674 10674 10675 10676 10678 10679 10679 10679 10680 10680 10680 10680 10681 10682 10683 10684 10685 10684 10684 10683 10683 10682 10681 10680 10678 10677 10677 10676 10674 10672 10670 10668 10666 10664 10662 10660 10657 10654 10652 10649 10646 10643 10639 10636 10633 10630 10626 10623 10620 10616 10612 10608 10604 10599
10649 10652 10655 10657 10659 10661 10663 10666 10667 10668 10669 10670 10671 10673 10673 10673 10674 10674 10674 10674 10675 10676 10676 10676 10677 10678 10678 10677 10677 10677 10676 10676 10675 10674 10673 10673 10672 10670 10669 10667 10665 10663 10661 10658 10656 10653 10651 10648 10645 10642 10639 10636 10632 10629 10626 10622 10618 10615 10611 10606 10602 10598 10593
10646 10648 10651 10653 10655 10657 10659 10661 10663 10663 10664 10666 10667 10668 10668 10669 10669 10669 10669 10669 10670 10670 10670 10670 10670 10671 10671 10671 10671 10671 10670 10670 10670 10670 10669 10669 10668 10666 10665 10663 10661 10659 10657 10655 10652 10649 10646 10643 10641 10638 10635 10632 10628 10625 10622 10618 10614 10610 10606 10602 10597 10593 10589
10642 10644 10647 10649 10650 10652 10655 10657 10658 10659 10660 10661 10662 10663 10663 10664 10664 10664 10664 10664 10664 10664 10664 10664 10664 10664 10665 10665 10665 10665 10665 10665 10665 10665 10665 10665 10664 10662 10661 10660 10658 10656 10653 10651 10648 10645 10642 10639 10636 10634 10631 10627 10624 10620 10617 10614 10610 10606 10602 10598 10593 10588 10583
10638 10641 10643 10645 10646 10649 10651 10653 10654 10654 10656 10657 10658 10658 10659 10659 10659 10659 10659 10659 10659 10659 10659 10659 10659 10659 10659 10660 10660 10660 10660 10661 10661 10661 10661 10660 10659 10658 10657 10656 10654 10652 10649 10647 10644 10641 10638 10635 10632 10629 10626 10623 10620 10616 10612 10609 10605 10601 10597 10593 10588 10583 10577
10634 10637 10639 10641 10643 10645 10647 10649 10649 10650 10651 10652 10653 10654 10654 10654 10654 10655 10655 10655 10655 10654 10654 10654 10654 10654 10654 10655 10655 10655 10656 10656 10656 10656 10656 10655 10655 10654 10653 10651 10650 10647 10645 10642 10640 10637 10634 10631 10628 10625 10622 10618 10615 10611 10608 10604 10600 10596 10592 10587 10582 10577 10572
10631 10634 10636 10637 10640 10642 10643 10644 10645 10646 10647 10647 10648 10649 10649 10649 10650 10650 10650 10650 10650 10650 10649 10649 10649 10649 10650 10650 10651 10651 10651 10652 10652 10651 10651 10651 10650 10650 10648 10647 10645 10643 10640 10638 10636 10633 10630 10627 10625 10622 10618 10614 10610 10607 10603 10600 10595 10591 10587 10582 10577 10572 10567
10628 10631 10633 10635 10637 10638 10639 10640 10641 10641 10642 10643 10644 10644 10645 10645 10646 10646 10645 10645 10645 10645 10644 10644 10645 10645 10646 10646 10647 10647 10647 10647 10647 10647 10647 10646 10646 10645 10644 10643 10641 10638 10636 10634 10631 10628 10626 10623 10621 10617 10613 10610 10606 10602 10598 10595 10591 10586 10582 10578 10573 10567 10562
10626 10628 10630 10632 10634 10634 10635 10636 10637 10637 10638 10639 10639 10640 10641 10641 10641 10641 10641 10640 10640 10640 10640 10640 10641 10641 10642 10642 10643 10643 10643 10643 10643 10643 10643 10642 10642 10641 10640 10638 10636 10634 10631 10629 10626 10623 10621 10618 10616 10612 10608 10604 10601 10597 10593 10589 10585 10581 10577 10573 10567 10562 10556
10623 10625 10628 10629 10630 10630 10631 10632 10633 10633 10634 10635 10636 10637 10637 10637 10637 10637 10636 10636 10636 10636 10636 10637 10637 10638 10638 10639 10639 10639 10639 10639 10639 10639 10638 10638 10637 10637 10635 10633 10631 10629 10627 10624 10621 10618 10616 10613 10611 10607 10603 10600 10596 10593 10588 10584 10580 10577 10572 10568 10562 10557 10551
10620 10622 10624 10626 10626 10627 10628 10629 10630 10630 10631 10631 10632 10632 10632 10632 10633 10632 10632 10632 10632 10632 10632 10633 10633 10634 10635 10635 10635 10636 10636 10636 10635 10635 10634 10634 10633 10632 10630 10628 10627 10624 10621 10618 10616 10613 10611 10608 10605 10602 10599 10595 10592 10588 10584 10579 10576 10572 10567 10562 10557 10551 10545
10616 10619 10621 10622 10623 10623 10624 10626 10627 10627 10627 10628 10629 10628 10628 10628 10628 10628 10629 10629 10629 10629 10629 10629 10630 10631 10631 10631 10632 10632 10632 10632 10631 10631 10630 10629 10628 10627 10625 10624 10622 10619 10616 10613 10611 10609 10606 10603 10600 10597 10594 10590 10587 10584 10579 10575 10571 10566 10562 10557 10551 10546 10540
10613 10615 10617 10618 10619 10620 10621 10622 10623 10623 10624 10625 10625 10624 10624 10624 10624 10625 10625 10625 10625 10625 10625 10626 10627 10628 10628 10628 10628 10628 10628 10628 10627 10626 10625 10625 10624 10622 10621 10619 10617 10614 10611 10609 10606 10604 10601 10598 10595 10592 10589 10585 10582 10579 10574 10570 10565 10561 10556 10551 10546 10540 10534
10609 10611 10612 10613 10614 10616 10617 10618 10619 10620 10621 10621 10621 10620 10620 10620 10621 10621 10622 10622 10622 10622 10622 10623 10623 10624 10624 10624 10624 10624 10624 10623 10623 10622 10621 10620 10619 10617 10616 10614 10612 10609 10606 10604 10602 10599 10597 10594 10590 10587 10584 10580 10576 10573 10570 10565 10560 10556 10551 10546 10540 10534 10528
10604 10606 10607 10609 10610 10612 10613 10614 10614 10616 10617 10617 10617 10616 10616 10617 10618 10618 10618 10619 10619 10619 10619 10620 10620 10620 10620 10620 10620 10620 10620 10619 10618 10617 10617 10616 10614 10613 10611 10609 10607 10604 10602 10599 10597 10595 10592 10589 10586 10582 10579 10575 10571 10568 10565 10560 10555 10551 10546 10540 10535 10529 10523
10599 10601 10602 10604 10606 10607 10608 10609 10610 10611 10612 10613 10613 10612 10612 10613 10614 10615 10615 10616 10616 10616 10616 10616 10617 10617 10616 10616 10616 10616 10615 10615 10614 10613 10612 10611 10610 10608 10606 10604 10602 10600 10597 10595 10593 10590 10588 10584 10581 10578 10574 10570 10567 10563 10560 10556 10551 10545 10540 10535 10529 10523 10517
10593 10595 10597 10599 10601 10602 10603 10604 10605 10606 10607 10608 10608 10608 10609 10610 10611 10612 10612 10613 10613 10613 10613 10613 10612 10612 10612 10612 10612 10611 10611 10610 10610 10609 10608 10606 10605 10603 10602 10600 10598 10596 10594 10591 10589 10586 10583 10579 10576 10572 10569 10565 10562 10558 10555 10551 10546 10540 10535 10529 10523 10518 10511
10586 10589 10591 10593 10595 10597 10598 10600 10601 10601 10602 10603 10604 10604 10605 10606 10607 10609 10609 10609 10609 10609 10609 10608 10608 10608 10608 10608 10608 10607 10606 10605 10605 10604 10603 10601 10600 10598 10597 10595 10593 10592 10590 10587 10584 10581 10578 10574 10571 10567 10564 10560 10557 10553 10549 10545 10540 10535 10529 10523 10517 10511 10505